Погода в Беренс-Ривер

Канада     52°21′23″N   97°00′47″W
темп.,
°C
ветер,
м/с
пор.,
м/с
влажн.,
%
обл.,
%
осадки,
мм/ч
давл.,
гПа
погр.,
м
27 сентября, пн
пн2701:00+11вюв3462100 0.0 1011102
04:00+9юв46685 0.0 1011148
07:00+9ююв47735 0.0 1012202
10:00+12ююв576522 0.0 1011321
13:00+16ююв7105889 0.0 1008558
16:00+17ююв7115313 0.0 1007456
19:00+17юв6125310 0.0 1005227
22:00+15юв7135929 0.0 1004217
28 сентября, вт
вт2801:00+15ююв7136538 0.0 1004282
04:00+13юв51074100 0.0 1004177
07:00+12юв48788 0.0 1004145
10:00+15юв46683 0.0 1005164
13:00+20ююв34565 0.0 1005233
16:00+22ююв35510 0.0 1005343
19:00+20в34590 0.0 100547
22:00+18вюв712673 0.0 1006182
29 сентября, ср
ср2901:00+17вюв713725 0.0 1005210
04:00+17вюв71474100 0.0 1005232
07:00+17вюв81575100 0.0 1005264
10:00+19юв8156878 0.0 1005299
13:00+23ююв71352100 0.0 1005342
16:00+22ююв81453100 0.0 1006484
19:00+21ю61159100 0.0 1007187
22:00+16ююз5881100 0.2 1010109
30 сентября, чт
чт3001:00+15юз337880 0.2 101238
04:00+15зюз367598 0.0 1014100
07:00+14зсз4676100 0.0 1016201
10:00+13зюз3479100 0.1 1018243
13:00+14зсз447379 0.3 1018452
16:00+14зсз23785 0.0 1019312
19:00+13сз11845 0.0 101929
22:00+12зсз00850 0.0 101910
1 октября, пт
пт101:00+13ююз11830 0.0 101910
04:00+12ююв22850 0.0 101936
07:00+11ююв34860 0.0 1019115
10:00+13ю34750 0.0 1019218
13:00+16ю45620 0.0 1018351
16:00+18ю46480 0.0 1017338
19:00+15юв47605 0.0 101766
22:00+13ююв4862100 0.0 101793